Starlink 1655

operational
NORAD ID: 47623 Int'l Des: 2021-012 Owner: SPXS Country: US Constellation: starlink
LEOCIRCULARSTARLINK_TYPE

Starlink 1655について

説明を読み込み中...

リアルタイム位置

3D地球を読み込み中...

次回通過

高度履歴

Altitude vs Time

uPlot chart will show altitude changes over time

軌道要素

1 47623U 21012D 25301.66674769 .00123772 00000-0 37574-2 0 9990
2 47623 53.0524 237.4533 0001544 123.5771 306.8605 15.33168685 5650
Epoch: Oct 28, 2025 • Age: 27 hours

現在のステータス

高度 471.7 km
速度 7.63 km/s
衛星直下点 -22.25°S, 103.69°E
打ち上げ日 Feb 16, 2021
運用期間 4.6 years
タイプ internet

技術仕様

分類 Payload
質量 260.00 kg
乾燥質量 248.00 kg
総質量 260.00 kg
長さ 0.20 m
直径 2.80 m
スパン 9.00 m
形状 Box + pan
製造者 SPXS
バスタイプ Starlink
フェーズステータス In Orbit
所有者/国 SPXS/US

大規模コンステレーション

Loading constellations...